World > North America > United States > Nebraska

Brainard, Nebraska Regional Weather

Lat: 41.18N, Lon: 97W
Wx Zone: NEZ050
Warning FLW WEATHER ALERT - (More Info. Click Here) Warning
Feedback

Brainard, NE Regional Weather

Expires:201908210900;;972213
ASUS43 KOAX 210810
RWRNE 

WEATHER ROUNDUP FOR NEBRASKA
NATIONAL WEATHER SERVICE OMAHA NE
300 AM CDT WED AUG 21 2019

NOTES: SATELLITE DATA IS BEING USED TO AUGMENT CLOUD COVER ABOVE
       12000 FEET.
       "FAIR" INDICATES FEW OR NO CLOUDS BELOW 12,000 FEET WITH NO
       SIGNIFICANT WEATHER AND/OR OBSTRUCTIONS TO VISIBILITY.

   

NEZ050>053-065>068-078-088>093-210900-
SOUTHEAST NEBRASKA
  
CITY           SKY/WX    TMP DP  RH WIND       PRES   REMARKS
LINCOLN        MOCLDY    80  77  90 VRB5      30.01R                  
OMAHA EPPLEY   MOCLDY    79  75  87 N14       29.93F                  
BEATRICE       TSTM      70  67  89 E14G20    30.03R                  
FALLS CITY     TSTM      79  73  83 E14       29.91R                  
NEBRASKA CITY  FAIR      79  78  99 CALM      29.93F                  
PLATTSMOUTH    CLOUDY    79  78  96 NE6       29.94R                  
$$


SKY/WX - Weather  TMP - Temperature  DP - Dew Point  RH - Relative Humidity
WIND - Wind Direction/Speed PRES - Barometric Pressure VSB - Visibility
WCI - Wind Chill Index E13G22 Wind - East Wind 13 mph/Gusts of 22 mph